NZWNNZQN

Guest
Details From NZWN - Wellington Intl
To NZQN - Queenstown
Flight Number -
Tags Generated
Created
Modified
Stats Distance 346 nm / 641 km
Max Altitude 0 ft / 0 m
Waypoints 3
Social Downloads 1
Likes 0
Share VATSIM

Download

Looking for another format? Having issues loading an existing format? Contact us
Advertisement - Login to hide

Notes

Generated

Route

NZWN CRIFL NZQN

ID Type Via Altitude Latitude Longitude Leg Dist Tot Dist Heading (true) Name
O NZWN APT - 0 ft / 0 m -41.31787˚ 174.80743˚ - 0 nm - -
CRIFL FIX - 0 ft / 0 m -44.71153˚ 169.22560˚ 318 nm 318 nm 228° / 232° -
O NZQN APT - 0 ft / 0 m -45.02010˚ 168.74263˚ 27 nm 346 nm 228° / 228° -

Altitude Profile

Advertisement - Login to hide

Weather


0- 5 10 15 20 25 30 35+ Temperature / ° C

Clouds and Precipitation
Forecast for 2018-05-22 00:00 UTC. Updated 2 hours ago

Ground ~20,000 ft ~40,000 ft Winds

NZWN

Details ICAO NZWN (WLG)
Name Wellington Intl
Region New Zealand and Antarctica
Timezone Pacific/Auckland (UTC+12.0)
Stats Elevation 42 ft / 13 m (AMSL)
Location -41.326843° 174.806842°
Runways 1
Magnetic Variation 22.616° E

METAR

NZWN 220100Z AUTO 34023G33KT 9999 FEW022/// 15/09 Q0996 NOSIG

Decode

TAF

TAF AMD NZWN 220133Z 2201/2300 35025G40KT 9999 FEW020 SCT040 FM220600 35030G50KT 9999 -SHRA FEW020 BKN030 TEMPO 2209/2213 2000 +TSRA FEW020CB BECMG 2210/2212 34015G25KT

Decode

Departure Runways

ID Width Length Bearing (true) Bearing (mag) Surface Threshold Offset Overrun Length
16 148 ft / 45 m 6,555 ft / 1,998 m 182.80° 160.18° Asphalt 200 ft / 61 m 197 ft / 60 m
34 148 ft / 45 m 6,555 ft / 1,998 m 2.80° 340.18° Asphalt 351 ft / 107 m 197 ft / 60 m

NZQN

Details ICAO NZQN (ZQN)
Name Queenstown
Region New Zealand and Antarctica
Timezone Pacific/Auckland (UTC+12.0)
Stats Elevation 1,171 ft / 357 m (AMSL)
Location -45.020546° 168.745402°
Runways 3
Magnetic Variation 24.449° E

METAR

Not found

TAF

TAF AMD NZQN 211901Z 2119/2212 01008KT 9999 -SHRA SCT030 BKN050 PROB40 2119/2203 3000 TSRA SCT030CB BECMG 2200/2202 26010KT TEMPO 2200/2206 7000 SHRA

Decode

Destination Runways

ID Width Length Bearing (true) Bearing (mag) Surface Threshold Offset Overrun Length
05L 121 ft / 37 m 2,516 ft / 767 m 75.96° 51.51° Grass 0 ft / 0 m 0 ft / 0 m
05R 116 ft / 35 m 6,056 ft / 1,846 m 75.96° 51.51° Asphalt 367 ft / 112 m 0 ft / 0 m
14 167 ft / 51 m 3,157 ft / 962 m 161.16° 136.71° Grass 33 ft / 10 m 0 ft / 0 m
23L 116 ft / 35 m 6,056 ft / 1,846 m 255.94° 231.49° Asphalt 187 ft / 57 m 0 ft / 0 m
23R 121 ft / 37 m 2,516 ft / 767 m 255.96° 231.51° Grass 0 ft / 0 m 0 ft / 0 m
32 167 ft / 51 m 3,157 ft / 962 m 341.16° 316.71° Grass 66 ft / 20 m 0 ft / 0 m

Popular Alternatives